Weather Service Report


530 
ASUS45 KSLC 231310
RWRUT 

UTAH REGIONAL WEATHER ROUNDUP
NATIONAL WEATHER SERVICE SALT LAKE CITY UT
700 AM MDT SAT AUG 23 2014

UTZ001>011-023>025-231400-

NORTHERN UTAH
  
CITY           SKY/WX    TMP DP  RH WIND       PRES   REMARKS
HILL AFB       CLOUDY    55  50  82 S7        30.05R                  
LOGAN          MOCLDY    52  51  97 NE5       30.03R                  
OGDEN          CLOUDY    56  49  77 CALM      30.03R                  
PROVO AIRPORT  LGT RAIN  52  46  82 S12       30.08F                  
SALT LAKE CITY CLOUDY    55  48  77 S7        30.02R                  
VERNAL         CLOUDY    53  49  86 CALM      30.06F                  
WENDOVER       CLEAR     54  45  71 NE6       30.04R                  
HEBER CITY     LGT RAIN  46  45  93 E9        30.12F                  
WEST JORDAN    CLEAR     55  54  94 SW12      30.05R                  

$$

UTZ012>022-026-027-231400-

SOUTHERN UTAH
  
CITY           SKY/WX    TMP DP  RH WIND       PRES   REMARKS
BRYCE CANYON   PTCLDY    45  43  93 CALM      30.19R                  
CEDAR CITY     CLEAR     56  49  77 CALM      30.07R                  
MILFORD        PTCLDY    54  52  93 NE6       30.05R                  
MOAB/CYNLANDS  LGT RAIN N/A N/A N/A N10       30.03R                  
PRICE          CLOUDY    55  49  80 SW9       30.08R                  
ST GEORGE      CLOUDY    72  50  46 E9        29.96R                  
KANAB          MOCLDY    61  50  67 S6        30.11R                  

$$

REGIONAL REPORTS     COLORADO/ARIZONA
  
CITY           SKY/WX    TMP DP  RH WIND       PRES   REMARKS
CRAIG, CO      CLOUDY    50  46  86 NE6       30.10F                  
GRAND JUNCTION CLOUDY    56  55  97 SW5       30.03F                  
RIFLE          LGT RAIN  54  51  90 SE6       30.12R                  
MONTROSE       CLOUDY    56  53  90 CALM      30.11R                  
CORTEZ         MOCLDY    52  50  93 NE3       30.14R                  
PAGE, AZ       CLEAR     67  50  54 CALM      30.03R                  
GRAND CANYON   CLEAR     46  45  96 CALM      30.21                   
KINGMAN        CLEAR     63  53  70 SE12      30.01R                  
FLAGSTAFF      CLEAR     47  44  90 CALM      30.25R                  

$$

REGIONAL REPORTS    NEVADA/IDAHO/WYOMING
  
CITY           SKY/WX    TMP DP  RH WIND       PRES   REMARKS
LAS VEGAS, NV  CLEAR     78  46  32 S13       29.84R                  
ELY            CLEAR     48  47  96 S7        30.12R                  
ELKO           CLEAR     42  34  73 CALM      30.09R                  
POCATELLO, ID  MOCLDY    48  48 100 S6        30.05R                  
BURLEY         CLEAR     45  43  93 SW7       30.04R                  
EVANSTON, WY   LGT RAIN  44  39  82 S22G33    30.13R                  
ROCK SPRINGS   CLOUDY    44  43  96 S3        30.08S                  

$$

Return to Home page


Western Regional Climate Center, wrcc@dri.edu